Flag for USA Weather for the Past 2 Weeks in Bryan – College Station, Texas, USA

Now
71 °F

Clear.


Feels Like: 76 °F
Forecast: 56 / 80 °F
Wind: 3 mph from North

Location: Easterwood Field

Current Time: May 4, 2016 at 10:28:00 PM

Latest Report: May 4, 2016 at 9:53 PM


Visibility: 10 mi

Pressure: 29.97 "Hg

Humidity: 57%

Dew Point: 55 °F

Location of Bryan – College StationLocation

Historic Weather in Bryan – College Station — Graph

°F

Bryan – College Station Temperature Yesterday

Maximum temperature yesterday: 74 °F (at 3:53 PM)
Minimum temperature yesterday: 53 °F (at 5:53 AM)
Average temperature yesterday: 64 °F

High & Low Weather Summary for the Past Weeks

 TemperatureHumidityPressure
High87 °F (Apr 25, 3:53 PM)100% (Apr 24, 11:53 PM)30.11 "Hg (Apr 24, 11:53 PM)
Low53 °F (May 3, 5:53 AM)34% (May 4, 5:53 PM)29.57 "Hg (Apr 27, 1:53 AM)
Average72 °F75%29.88 "Hg
* Reported Apr 19 8:53 PM — May 4 8:53 PM, Bryan – College Station, Weather by CustomWeather, © 2016

Note: Actual official high and low records may vary slightly from our data, if they occured in-between our weather recording intervals... More about our weather records

Advertising

Bryan – College Station Weather History for the Previous 24 Hours

Scroll right to see more
 ConditionsComfort  
Time TempWeatherWind HumidityBarometerVisibility
8:53 PM
Wed, May 4
71 °FSunny.No wind59%29.96 "Hg10 mi
7:53 PM77 °FSunny.3 mph44%29.94 "Hg10 mi
6:53 PM81 °FSunny.8 mph37%29.94 "Hg10 mi
5:53 PM83 °FSunny.10 mph34%29.95 "Hg10 mi
4:53 PM83 °FSunny.12 mph36%29.96 "Hg10 mi
3:53 PM82 °FSunny.10 mph38%29.98 "Hg10 mi
2:53 PM81 °FSunny.15 mph38%30.00 "Hg10 mi
1:53 PM80 °FSunny.12 mph38%30.02 "Hg10 mi
12:53 PM77 °FSunny.10 mph45%30.05 "Hg10 mi
11:53 AM74 °FSunny.5 mph48%30.08 "Hg10 mi
10:53 AM71 °FSunny.7 mph51%30.09 "Hg10 mi
9:53 AM67 °FSunny.8 mph59%30.10 "Hg10 mi
8:53 AM62 °FSunny.7 mph70%30.10 "Hg10 mi
7:53 AM57 °FSunny.7 mph81%30.09 "Hg10 mi
6:53 AM54 °FClear.No wind86%30.06 "Hg10 mi
5:53 AM55 °FClear.No wind83%30.04 "Hg10 mi
4:53 AM54 °FClear.3 mph86%30.04 "Hg10 mi
3:53 AM54 °FClear.3 mph90%30.04 "Hg10 mi
2:53 AM54 °FClear.No wind86%30.04 "Hg10 mi
1:53 AM56 °FClear.No wind81%30.05 "Hg10 mi
12:53 AM60 °FClear.No wind65%30.06 "Hg10 mi
11:53 PM
Tue, May 3
59 °FClear.5 mph69%30.07 "Hg10 mi
10:53 PM61 °FClear.5 mph62%30.07 "Hg10 mi
Weather by CustomWeather, © 2016

See weather overviewHow to use our weather pages